Orbital Elements at Epoch 2459200.5 (2020-Dec-17.0) TDB
Reference: JPL 15 (heliocentric ecliptic J2000)
Element | Value | Uncertainty (1-sigma) | Units |
e | .04257452984816069 | 5.6462e-08 | |
a | 2.813565504740857 | 2.3478e-08 | au |
q | 2.693779276179512 | 1.5527e-07 | au |
i | 3.495713242070059 | 7.2935e-06 | deg |
node | 7.861262907969336 | 7.0039e-05 | deg |
peri | 233.6407114496353 | 0.0001061 | deg |
M | 139.1124538758673 | 8.0992e-05 | deg |
tp | 2458534.387653198717 (2019-Feb-19.88765320) | 0.00038528 | TDB |
period | 1723.78847592208 4.72 | 2.1576e-05 5.907e-08 | d yr |
n | .2088423289913403 | 2.614e-09 | deg/d |
Q | 2.933351733302202 | 2.4477e-08 | au |
|
| | Orbit Determination Parameters
Additional Information
|